Tracking 31027 objects as of 19-Jul-2025
HD Live streaming from Space Station
objects crossing your sky now

ONEWEB-0446

Track ONEWEB-0446 now!
10-day predictions
ONEWEB-0446 is classified as:


NORAD ID: 51640
Int'l Code: 2022-012U
Perigee: 1,227.5 km
Apogee: 1,230.3 km
Inclination: 87.9 °
Period: 109.9 minutes
Semi major axis: 7599 km
RCS: Unknown
Launch date: February 10, 2022
Source: United Kingdom (UK)
Launch site: FRENCH GUIANA (FRGUI)
Your satellite tracking list
EUTE 33A (EB 3)
Track 1 satellite(s)




NASA's NSSDC Master Catalog

Two Line Element Set (TLE):
1 51640U 22012U   25199.48843630  .00000495  00000-0  13823-2 0  9992
2 51640  87.8819 102.8454 0001843  70.2623 289.8703 13.10372611165621
Source of the keplerian elements: AFSPC